User: anonymous   Login
Location: Unspecified
(0.0000°N, 0.0000°E)
Time: 22:13:21
(UTC+00:00)
Language:

AMOS 1 - Orbit

View from above orbital plane
View from above orbital plane
View from above satellite
View from above satellite

Ground track
Ground track

The orbit data is extracted from the following two-line orbital elements,

1 23865U 96030B   15211.42949237 -.00000081  00000-0  00000+0 0  9991
2 23865 005.8476 058.9792 0013235 095.5112 170.6872 00.97117183 69972
Epoch (UTC): 30 July 2015 10:18:28
Eccentricity: 0.0013235
inclination: 5.8476°
perigee height: 36637 km
apogee height: 36751 km
right ascension of ascending node: 58.9792°
argument of perigee: 95.5112°
revolutions per day: 0.97117183
mean anomaly at epoch: 170.6872°
orbit number at epoch: 6997

The dashed part of the orbit path shows where the satellite is in the earth's shadow,  

DLR